Regional Weather Roundup
Issued by NWS

Home | Current Version | Previous Version | Text Only | Print | Product List | Glossary On
Versions: 1 2 3 4 5 6 7 8 9 10 11 12 13 14 15 16 17 18 19 20 21 22 23 24 25 26 27 28 29 30 31 32 33 34 35 36 37 38 39 40 41 42 43 44 45 46 47 48 49 50
000
ASUS43 KDMX 041507
RWRIA

WEATHER ROUNDUP FOR IOWA
NATIONAL WEATHER SERVICE DES MOINES IA
1000 AM CDT FRI SEP 04 2015

NOTE: "FAIR" INDICATES FEW OR NO CLOUDS BELOW 12,000 FEET WITH NO
SIGNIFICANT WEATHER AND/OR OBSTRUCTIONS TO VISIBILITY.

* - THESE STATIONS ARE NOT NWS STATIONS...THUS NOT UNDER NWS
QUALITY CONTROL.  THEY ALSO DO NOT REPORT WEATHER SUCH
AS PRECIPITATION OR FOG.

IAZ001>003-012>014-020>022-031>034-043>046-041600-
   NORTHWEST IOWA

CITY           SKY/WX    TMP DP  RH WIND       PRES   REMARKS
CARROLL *      SUNNY     77  72  83 S13       29.93S
CHEROKEE *     CLOUDY    75  72  88 S8        29.88F
DENISON *      SUNNY     75  70  83 S8G18     29.91F
LE MARS *      SUNNY     73  70  88 VRB3      29.86R
ORANGE CITY *  SUNNY     73  70  88 S8        29.86S
SHELDON *      SUNNY     75  70  83 SE10      29.85F
SIOUX CITY     CLOUDY    73  68  84 S16       29.85S
SPENCER        PTSUNNY   79  68  69 S14G21    29.89F HX  81
STORM LAKE *   SUNNY     75  70  83 S13       29.92S
$$

IAZ055>058-069>071-079>083-090>094-041600-
   SOUTHWEST IOWA

CITY           SKY/WX    TMP DP  RH WIND       PRES   REMARKS
ATLANTIC *     SUNNY     79  72  78 S13       29.96R HX  82
AUDUBON *      SUNNY     77  70  78 S10       29.97R
CLARINDA *     SUNNY     79  72  78 S10       29.98S HX  82
COUNCIL BLFS * SUNNY     79  70  73 S12       29.95S HX  81
CRESTON *      SUNNY     79  72  78 S14       30.00S HX  82
LAMONI         SUNNY     81  71  71 SW8       30.00S HX  85
RED OAK *      SUNNY     77  72  83 S7        29.96S
SHENANDOAH *   SUNNY     81  72  74 VRB7G15   29.96S HX  84
$$

IAZ047>049-059>061-072>074-084-041600-
   CENTRAL IOWA

CITY           SKY/WX    TMP DP  RH WIND       PRES   REMARKS
AMES           SUNNY     80  71  74 S9        29.97S HX  84
ANKENY *       SUNNY     81  70  69 SW10      29.97S HX  84
CHARITON *     SUNNY     81  72  74 SW9       30.00R HX  84
DES MOINES     MOSUNNY   82  70  66 S8        29.97S HX  86
GRINNELL*      SUNNY     79  70  73 S8        30.01S HX  81
KNOXVILLE *    SUNNY     81  70  69 S12       29.98S HX  84
MARSHALLTOWN   SUNNY     80  72  76 S6        29.98S HX  84
PELLA *        SUNNY     82  73  74 S3        30.01S HX  88
PERRY *          N/A     81  72  74 S10       29.96S HX  84
$$

IAZ004>006-015-016-023>025-035-036-041600-
   NORTH CENTRAL IOWA

CITY           SKY/WX    TMP DP  RH WIND       PRES   REMARKS
ALGONA *       SUNNY     79  70  73 S14       29.93F HX  81
CLARION *      SUNNY     79  70  73 S9        29.96S HX  81
ESTHERVILLE    MOSUNNY   76  70  82 S12       29.91F
FORT DODGE *   SUNNY     81  68  65 S9        29.95F HX  83
MASON CITY     MOSUNNY   78  72  81 SE9       29.98F HX  80
FOREST CITY *  SUNNY     79  70  73 S6        29.96S HX  81
IOWA FALLS *     N/A     81  72  74 S7        29.99S HX  84
$$

IAZ007>011-017>019-026>030-037>042-050>054-066-041600-
   NORTHEAST IOWA

CITY           SKY/WX    TMP DP  RH WIND       PRES   REMARKS
CEDAR RAPIDS   SUNNY     81  73  76 SW8       30.01R HX  86
CHARLES CITY * MOSUNNY   77  73  88 S7        30.00S
CLINTON *      SUNNY     77  72  83 CALM      30.04R
DECORAH *      MOSUNNY   73  72  94 VRB5      30.01S
DUBUQUE        SUNNY     76  70  82 CALM      30.04R
MONTICELLO *   MOSUNNY   77  73  88 CALM      30.02R
OELWEIN *      MOSUNNY   79  73  83 VRB5      30.02R HX  82
WATERLOO       MOSUNNY   80  70  71 S7        29.99R HX  83
$$

IAZ064-065-067-068-078-041600-
   EAST CENTRAL IOWA

CITY           SKY/WX    TMP DP  RH WIND       PRES   REMARKS
DAVENPORT      MOSUNNY   80  70  71 CALM      30.02R HX  83
IOWA CITY      SUNNY     81  71  71 S5        30.02R HX  85
MT. PLEASANT * SUNNY     86  66  51 CALM      30.02R HX  88
MUSCATINE *    SUNNY     82  72  69 CALM      30.01R HX  87
QUAD CITIES    SUNNY     84  70  62 CALM      30.01R HX  88
$$

IAZ062-063-075>077-085>089-095>099-041600-
   SOUTHEAST IOWA

CITY           SKY/WX    TMP DP  RH WIND       PRES   REMARKS
BURLINGTON     SUNNY     83  72  69 SW6       30.02R HX  88
FAIRFIELD *    SUNNY     82  70  65 SW5       30.02R HX  86
FORT MADISON * SUNNY     82  73  74 CALM      30.03R HX  88
KEOKUK *       SUNNY     84  72  65 SW7       30.02R HX  89
OSKALOOSA *      N/A     82  70  65 SW7       30.01S HX  86
CENTERVILLE *  SUNNY     81  73  78 S5        30.03S HX  85
OTTUMWA        SUNNY     81  72  74 SW8       30.00R HX  85
WASHINGTON *     N/A    N/A N/A N/A MISG        N/A
$$

ABBREVIATIONS USED IN REMARKS
   TC - TEMPERATURES IN CELSIUS
  WCI - WIND CHILL INDEX
   HX - HEAT INDEX
  VSB - VISIBILITY
$$



USA.gov is the U.S. government's official web portal to all federal, state and local government web resources and services.